TIME,DELAY(SENSOR),PRES,OXYGEN,RAWTEMP,T(OPTODE),TCPHASE,FLUOR,BETA(BETA700),BETA(BETA412),BETA(BETA440),CDOM,C(CSC),ED(ED412.40),ED(ED444.00),ED(ED489.70),ED(ED554.30),LU(LU411.80),LU(LU443.40),LU(LU489.60),LU(LU554.10),COMP,TILTX,TILTY,CHECK
1373170392,5807,844.4299926757812000,46.3386306762695300,661.0548706054688000,4.5932369232177730,54.0761718750000000,52,99,83,77,78,15435,2147754532,2147425389,2148009682,2147874486,2147639049,2147058825,2148255021,2147198628,3509,4,13,40084
1373173988,5812,904.0700073242188000,48.5124588012695300,667.8302001953125000,4.3698458671569820,53.8479690551757800,53,100,85,77,79,15434,2147756790,2147425060,2148010770,2147876864,2147643593,2147057929,2148261659,2147197321,3313,4,13,30593
1373177588,5810,912.5599975585938000,49.5148391723632800,669.1137084960938000,4.3274707794189450,53.7245292663574200,53,98,86,77,79,15427,2147755465,2147424905,2148009545,2147875008,2147642889,2147057234,2148255506,2147192265,639,4,13,51898
1373181188,5812,929.5900268554688000,51.5146102905273440,672.4382934570312000,4.2176170349121090,53.4922599792480500,52,100,83,78,79,15435,2147754203,2147425170,2148010212,2147873298,2147640091,2147048201,2148255716,2147194532,410,4,13,28048
1373184788,5809,942.5599975585938000,52.6811599731445300,672.6826782226562000,4.2095360755920410,53.3362998962402340,52,98,84,79,79,15434,2147756059,2147424091,2148012105,2147875867,2147643072,2147058651,2148260306,2147195547,194,4,13,18630
1373188388,5806,944.2800292968750000,52.7689094543457000,673.3751220703125000,4.1866397857666020,53.3341293334960940,52,98,83,78,80,15436,2147755117,2147425782,2148010816,2147874523,2147641636,2147057124,2148257024,2147194587,344,4,13,59120
1373191988,5811,974.8599853515625000,53.2116813659668000,675.9379882812500000,4.1018409729003910,53.3120994567871100,53,98,88,79,79,15435,2147759515,2147424960,2148009938,2147873453,2147640201,2147051931,2148260187,2147197997,3465,4,13,46532
1373195588,5808,971.4099731445312000,53.1353492736816400,676.5852050781250000,4.0804181098937990,53.3278007507324200,51,98,86,78,79,15433,2147757074,2147424822,2148009819,2147874496,2147643126,2147048109,2148258953,2147190857,3410,4,13,52508
1373199188,5809,977.9600219726562000,51.7815895080566400,676.6486816406250000,4.0783119201660160,53.5109786987304700,52,101,87,79,79,15434,2147757211,2147423314,2148010541,2147873206,2147643593,2147051053,2148266358,2147198939,3380,4,13,43859
1373202788,5804,973.0000000000000000,52.6352386474609400,676.5925903320312000,4.0801720619201660,53.3974914550781250,52,98,84,79,79,15434,2147754395,2147423972,2148008649,2147876598,2147643318,2147054884,2148262866,2147194432,3591,4,13,214
1373206388,5810,978.7999877929688000,52.4368896484375000,675.2153930664062000,4.1257591247558590,53.4048805236816400,52,99,86,79,80,15433,2147758098,2147427026,2148010285,2147875757,2147642240,2147052489,2148263168,2147197577,102,4,13,41419
1373209988,5810,970.1900024414062000,52.5330886840820300,676.9926147460938000,4.0669288635253910,53.4151802062988300,53,99,85,79,80,15431,2147757577,2147425929,2148011181,2147874569,2147644717,2147055094,2148257554,2147197933,376,4,13,63830
1373213588,5809,981.4199829101562000,52.0029411315918000,676.5230712890625000,4.0824718475341800,53.4803504943847660,53,101,85,79,78,15434,2147757677,2147425261,2148011062,2147874633,2147644233,2147057801,2148263890,2147195556,251,4,13,47863
1373217188,5808,982.0000000000000000,52.4695091247558600,675.8538818359375000,4.1046261787414550,53.4094200134277340,52,99,89,79,79,15419,2147757568,2147425737,2148010989,2147876269,2147647158,2147052489,2148259968,2147197074,184,4,13,55506
1373220788,5808,978.6099853515625000,52.0601005554199200,676.2432250976562000,4.0917401313781740,53.4704399108886700,52,99,89,79,79,15433,2147757622,2147425216,2148010267,2147873627,2147642450,2147050176,2148257508,2147193545,103,4,13,13645
1373224388,5808,978.3800048828125000,52.3265113830566400,676.4672851562500000,4.0843200683593750,53.4380683898925800,52,98,87,80,80,15431,2147758893,2147431515,2148010614,2147874688,2147643035,2147055195,2148264859,2147194541,3528,4,13,42939
1373227988,5809,973.0399780273438000,51.6708106994628900,677.0427246093750000,4.0652680397033690,53.5301704406738300,53,100,87,79,79,15428,2147757293,2147427108,2148009782,2147875017,2147641929,2147053412,2148260480,2147193645,668,4,13,7122
1373231588,5811,978.1699829101562000,51.5811500549316400,678.7476806640625000,4.0087928771972660,53.5608787536621100,51,99,88,79,80,15428,2147756032,2147425691,2148011245,2147875364,2147641517,2147053074,2148261046,2147197156,54,4,13,34658
1373235188,5806,978.7399902343750000,51.5342903137207000,677.7977294921875000,4.0402622222900390,53.5615005493164060,53,98,84,78,80,15427,2147756918,2147428635,2148005065,2147874496,2147643300,2147052873,2148259474,2147196964,195,4,13,38505
1373238788,5809,980.1799926757812000,51.7024497985839840,677.7797241210938000,4.0408592224121090,53.5361518859863300,64,97,84,78,80,15431,2147757348,2147426550,2148006125,2147873389,2147643556,2147051163,2148258404,2147194989,3454,4,13,20537
1373242388,5808,988.2999877929688000,51.8897895812988300,677.9625854492188000,4.0348010063171390,53.5138015747070300,52,99,90,78,79,15429,2147758034,2147427821,2148010962,2147875547,2147642596,2147051282,2148263771,2147195657,426,4,13,4482
1373245988,5808,986.0100097656250000,51.3755798339843750,677.1655273437500000,4.0612010955810550,53.5743293762207000,53,99,84,78,78,15428,2147755382,2147425563,2148008310,2147876105,2147644809,2147053513,2148261065,2147197522,3427,4,13,31202
1373249588,5813,992.1799926757812000,53.0729484558105500,675.5902709960938000,4.1133499145507810,53.3255691528320300,51,99,84,79,80,15429,2147758390,2147424960,2148009334,2147873856,2147641901,2147053110,2148263058,2147198208,2964,4,13,48380
1373253188,5809,989.2800292968750000,52.3419189453125000,676.0250854492188000,4.0989608764648440,53.4300804138183600,52,100,86,78,80,15426,2147758912,2147425764,2148012726,2147874532,2147637915,2147055104,2148261385,2147197403,325,4,13,29531
1373256788,5810,990.6400146484375000,52.3711204528808600,675.7968139648438000,4.1065177917480470,53.4212493896484400,52,100,86,78,79,15421,2147759716,2147426715,2148008886,2147876845,2147637440,2147050331,2148260909,2147197357,545,4,13,54982
1373260388,5812,992.1199951171875000,52.3176193237304700,675.9857788085938000,4.1002621650695800,53.4312515258789060,52,99,88,78,80,15427,2147755264,2147423341,2148010176,2147873627,2147641956,2147050011,2148261458,2147197293,390,4,13,45317
1373263988,5809,984.5800170898438000,51.7403984069824200,677.1837158203125000,4.0605998039245605,53.5248413085937500,52,96,86,79,80,15426,2147757366,2147426989,2148008045,2147876772,2147642578,2147053952,2148263954,2147195785,3442,4,13,25389
1373267588,5811,986.0900268554688000,51.4684600830078100,677.0629272460938000,4.0645999908447270,53.5581283569335940,53,96,88,79,78,15423,2147756306,2147423808,2148008402,2147873398,2147643849,2147050761,2148261778,2147198784,443,4,13,42575
1373271188,5809,985.0800170898438000,52.9018096923828100,675.8983154296875000,4.1031551361083980,53.3509597778320300,52,98,83,79,78,15423,2147756992,2147423817,2148011556,2147876562,2147641097,2147052132,2148258550,2147193810,3289,4,13,35173
1373274788,5810,988.7199707031250000,52.7904090881347660,675.8656005859375000,4.1042389869689940,53.3643989562988300,53,96,86,78,78,15420,2147758308,2147422418,2148010486,2147874761,2147641344,2147056009,2148261805,2147198756,659,4,13,39644
1373278388,5810,984.1300048828125000,52.5030403137207000,676.8999023437500000,4.0699977874755860,53.4193305969238300,52,99,85,78,78,15418,2147759780,2147424987,2148008576,2147875757,2147643291,2147051300,2148259072,2147197622,113,4,13,23679
1373281988,5806,993.7100219726562000,52.8081207275390600,675.9865722656250000,4.1002330780029300,53.3629798889160160,52,100,88,78,80,15424,2147753472,2147426633,2148007716,2147875638,2147642285,2147048420,2148262372,2147196242,3337,4,13,59922
1373285588,5810,990.5599975585938000,52.4607696533203100,675.9871215820312000,4.1002178192138670,53.4069786071777340,52,98,87,79,80,15424,2147758774,2147424365,2148012608,2147873792,2147640841,2147053165,2148258057,2147200393,3115,4,13,26840
1373289188,5807,988.1799926757812000,51.4619789123535160,677.5286865234375000,4.0491709709167480,53.5627098083496100,52,101,82,77,80,15422,2147759040,2147426249,2148008950,2147875492,2147642505,2147055817,2148256667,2147197165,86,4,13,29432
1373292788,5807,990.7700195312500000,51.3361396789550800,677.2482299804688000,4.0584640502929690,53.5787010192871100,52,99,89,79,80,15422,2147757842,2147424448,2148009188,2147873078,2147643264,2147049956,2148265170,2147197714,3454,3,13,2156
1373296388,5810,986.9400024414062000,51.3474998474121100,677.2797851562500000,4.0574150085449220,53.5803489685058600,53,97,86,78,80,15423,2147754752,2147425398,2148010880,2147876105,2147643785,2147051995,2148263872,2147197238,3513,4,13,55841
1373299988,5809,989.3900146484375000,50.8349494934082000,677.3342285156250000,4.0556139945983890,53.6471290588378900,53,99,86,78,79,15419,2147757421,2147424265,2148011574,2147876480,2147643538,2147044571,2148263350,2147198345,3469,4,13,32320
1373303588,5808,983.5200195312500000,51.0207214355468750,677.6264038085938000,4.0459370613098145,53.6286315917968750,53,98,86,79,79,15423,2147757275,2147426770,2148007113,2147875172,2147644032,2147053878,2148262482,2147197915,3475,4,13,47020
1373307188,5809,991.3699951171875000,51.1643714904785160,677.5930175781250000,4.0470452308654785,53.6057281494140600,52,97,86,78,78,15419,2147760356,2147425142,2148010340,2147874084,2147642523,2147049746,2148258724,2147198262,3373,4,13,54636
1373310788,5810,981.3300170898438000,51.5630607604980500,678.2980957031250000,4.0236868858337400,53.5591011047363300,53,99,83,79,79,15419,2147757686,2147425965,2148007652,2147873170,2147642368,2147055442,2148256676,2147197522,338,4,13,49468
1373314256,5810,981.5599975585938000,51.3845100402832000,678.6817016601562000,4.0109791755676270,53.5881500244140600,52,98,87,78,80,15424,2147756726,2147428434,2148009819,2147875803,2147641782,2147056832,2148261988,2147198546,128,4,13,51885
